STARLINK-30299 (57650 NORAD) Tracking and Keplerian Element Data

This shows tracking and keplerian element data for the satellite.

Feedback or suggestion? Click here.




ElementValue
Catalog57650
NameSTARLINK-30299
Epoch Orbit2385
Epoch Day13.11667715
Epoch Year2024
RAAN48.4051
Inclination43.003
Eccentricity7.82E-05
Argument of Perigee263.1281
Mean Anonmoly96.9473
Mean Motion15.02541188
Decay Rate0.00014297
L11 57650U 23122U 24013.11667715 .00014297 00000+0 10711-2 0 9991
L22 57650 43.0030 48.4051 0000782 263.1281 96.9473 15.02541188 23858



Live tracking and technical data element details for STARLINK-30299 (NORAD 57650). STARLINK-30299 can be tracked NOW for your location showing map with azimuth and elevation plus other details from your city location.







IsCatalogInMostPopularTable: catalog: 57650, numindb: 32
Update: records affected: 1



GetName: 57650 STARLINK-30299

Hit Count: updated at: Thu, 22 Feb 2024 00:45:30 GMT